Grand Island, NE

11:52 PM CDT on July 27, 2017 (GMT -0500)
Central Nebraska Regional

Weather History for KGRI - July, 2014

Change the Weather History Date:

Wednesday, July 23, 2014

  Actual Average Record
Temperature  
Mean Temperature 73 °F 76 °F  
Max Temperature 83 °F 88 °F 106 °F (1940)
Min Temperature 62 °F 65 °F 48 °F (1948)
Degree Days  
Heating Degree Days 0 0  
Month to date heating degree days 4 0  
Since 1 June heating degree days 14 24  
Since 1 July heating degree days 4 0  
Cooling Degree Days 8 11  
Month to date cooling degree days 191 262  
Year to date cooling degree days 560 540  
Since 1 June cooling degree days 441 475  
Growing Degree Days 22 (Base 50)    
Moisture  
Dew Point 61 °F    
Average Humidity 69    
Maximum Humidity 93    
Minimum Humidity 45    
Precipitation  
Precipitation 0.00 in 0.11 in 0.84 in (1968)
Month to date precipitation 2.06 2.57  
Year to date precipitation 16.20 16.82  
Snow  
Snow 0.00 in 0.00 in - ()
Month to date snowfall 0.0 0.0  
Since 1 June snowfall 0.0 0.0  
Since 1 July snowfall 0.0 0.0  
Snow Depth 0.00 in    
Sea Level Pressure  
Sea Level Pressure 30.20 in    
Wind  
Wind Speed 7 mph (East)    
Max Wind Speed 14 mph    
Max Gust Speed 20 mph    
Visibility 10 miles    
Events      
T = Trace of Precipitation, MM = Missing Value Source: NWS Daily Summary

Daily Weather History Graph

Daily Weather History Graph

Search for Another Location

Airport or City:

Trip Planner

Search our weather history database for the weather conditions in past years. The results will help you decide how hot, cold, wet, or windy it might be!

Date:

Astronomy

Jul. 23, 2014 Rise Set
Actual Time 6:20 AM CDT 8:58 PM CDT
Civil Twilight 5:49 AM CDT 9:29 PM CDT
Nautical Twilight 5:09 AM CDT 10:09 PM CDT
Astronomical Twilight 4:24 AM CDT 10:53 PM CDT
Moon 3:41 AM CDT (7/23) 6:27 PM CDT (7/23)
Length of Visible Light 15h 40m
Length of Day
14h 37m
Waning Crescent, 9% of the Moon is Illuminated
Jul 23
Waning Crescent
Jul 26
New
Aug 3
First Quarter
Aug 10
Full
Aug 17
Last Quarter

Hourly Weather History & Observations

Time (CDT) Temp. Heat Index Dew Point Humidity Pressure Visibility Wind Dir Wind Speed Gust Speed Precip Events Conditions
12:53 AM 69.1 °F - 66.0 °F 90% 30.19 in 10.0 mi Calm Calm - N/A   Clear
1:53 AM 68.0 °F - 64.9 °F 90% 30.20 in 10.0 mi NNE 4.6 mph - N/A   Clear
2:53 AM 66.9 °F - 64.0 °F 90% 30.20 in 10.0 mi NNE 6.9 mph - N/A   Clear
3:53 AM 66.9 °F - 63.0 °F 87% 30.17 in 10.0 mi ENE 6.9 mph - N/A   Clear
4:53 AM 64.9 °F - 62.1 °F 90% 30.20 in 10.0 mi ENE 4.6 mph - N/A   Clear
5:53 AM 64.0 °F - 60.1 °F 87% 30.25 in 10.0 mi West 3.5 mph - N/A   Clear
6:53 AM 63.0 °F - 60.1 °F 90% 30.25 in 10.0 mi North 3.5 mph - N/A   Clear
7:53 AM 66.9 °F - 61.0 °F 81% 30.26 in 10.0 mi East 5.8 mph - N/A   Clear
8:53 AM 69.1 °F - 62.1 °F 78% 30.26 in 10.0 mi NNE 9.2 mph - N/A   Clear
9:53 AM 73.0 °F - 60.1 °F 64% 30.26 in 10.0 mi ENE 8.1 mph - N/A   Clear
10:53 AM 73.9 °F - 59.0 °F 59% 30.25 in 10.0 mi ESE 8.1 mph - N/A   Clear
11:53 AM 75.0 °F - 59.0 °F 57% 30.22 in 10.0 mi East 10.4 mph - N/A   Clear
12:53 PM 77.0 °F - 59.0 °F 54% 30.28 in 10.0 mi Calm Calm - N/A   Clear
1:53 PM 78.1 °F - 59.0 °F 52% 30.23 in 10.0 mi Variable 3.5 mph - N/A   Clear
2:53 PM 81.0 °F 81.1 °F 57.9 °F 45% 30.19 in 10.0 mi SE 9.2 mph - N/A   Clear
3:53 PM 82.0 °F 82.1 °F 59.0 °F 45% 30.16 in 10.0 mi East 11.5 mph - N/A   Clear
4:53 PM 82.9 °F 83.2 °F 60.1 °F 46% 30.14 in 10.0 mi East 12.7 mph - N/A   Clear
5:53 PM 82.0 °F 82.1 °F 59.0 °F 45% 30.14 in 10.0 mi East 12.7 mph - N/A   Clear
6:53 PM 81.0 °F 81.3 °F 59.0 °F 47% 30.13 in 10.0 mi ESE 10.4 mph - N/A   Clear
7:53 PM 78.1 °F - 61.0 °F 56% 30.13 in 10.0 mi East 4.6 mph - N/A   Clear
8:53 PM 73.9 °F - 62.1 °F 66% 30.14 in 10.0 mi SE 3.5 mph - N/A   Clear
9:53 PM 70.0 °F - 62.1 °F 76% 30.14 in 10.0 mi ESE 4.6 mph - N/A   Clear
10:53 PM 69.1 °F - 62.1 °F 78% 30.14 in 10.0 mi East 5.8 mph - N/A   Clear
11:53 PM 66.9 °F - 61.0 °F 81% 30.14 in 10.0 mi ESE 4.6 mph - N/A   Clear